Time,TemperatureF,DewpointF,PressureIn,WindDirection,WindDirectionDegrees,WindSpeedMPH,WindSpeedGustMPH,Humidity,HourlyPrecipIn,Conditions,Clouds,dailyrainin,SoftwareType,DateUTC
2013-01-16 00:00:00,36.1,34.5,30.08,North,5,4.0,7.0,94,0.07,,---,0.00,VWS V14.00,2013-01-16 05:00:00,
2013-01-16 00:02:00,36.1,34.5,30.08,North,5,3.0,7.0,94,0.07,,---,0.00,VWS V14.00,2013-01-16 05:02:00,
2013-01-16 00:03:00,36.1,34.5,30.08,North,355,7.0,8.0,94,0.07,,---,0.00,VWS V14.00,2013-01-16 05:03:00,
2013-01-16 00:08:00,36.1,34.5,30.08,North,10,4.0,8.0,94,0.07,,---,0.00,VWS V14.00,2013-01-16 05:08:00,
2013-01-16 00:13:00,36.1,34.5,30.07,North,350,5.0,8.0,94,0.08,,---,0.01,VWS V14.00,2013-01-16 05:13:00,
2013-01-16 00:18:00,36.1,34.5,30.07,North,360,3.0,8.0,94,0.09,,---,0.02,VWS V14.00,2013-01-16 05:18:00,
2013-01-16 00:23:00,36.0,34.4,30.07,North,355,6.0,8.0,94,0.10,,---,0.03,VWS V14.00,2013-01-16 05:23:00,
2013-01-16 00:28:00,35.9,34.1,30.07,NNW,348,4.0,8.0,93,0.07,,---,0.03,VWS V14.00,2013-01-16 05:28:00,
2013-01-16 00:33:00,35.8,34.0,30.07,North,5,3.0,8.0,93,0.08,,---,0.04,VWS V14.00,2013-01-16 05:33:00,
2013-01-16 00:38:00,35.7,33.9,30.07,North,351,7.0,8.0,93,0.09,,---,0.05,VWS V14.00,2013-01-16 05:38:00,
2013-01-16 00:43:00,35.7,34.2,30.07,North,355,6.0,8.0,94,0.10,,---,0.06,VWS V14.00,2013-01-16 05:43:00,
2013-01-16 00:48:00,35.7,34.2,30.07,NNE,28,3.0,8.0,94,0.10,,---,0.06,VWS V14.00,2013-01-16 05:48:00,
2013-01-16 00:53:00,35.7,34.2,30.06,NE,36,3.0,8.0,94,0.11,,---,0.07,VWS V14.00,2013-01-16 05:53:00,
2013-01-16 00:58:00,35.7,34.2,30.06,NNE,13,0.0,2.0,94,0.08,,---,0.08,VWS V14.00,2013-01-16 05:58:00,
2013-01-16 01:03:00,35.6,34.0,30.07,NNE,13,3.0,4.0,94,0.09,,---,0.09,VWS V14.00,2013-01-16 06:03:00,
2013-01-16 01:08:00,35.6,34.0,30.08,North,349,4.0,7.0,94,0.09,,---,0.09,VWS V14.00,2013-01-16 06:08:00,
2013-01-16 01:13:00,35.6,34.0,30.08,NNW,346,6.0,8.0,94,0.10,,---,0.10,VWS V14.00,2013-01-16 06:13:00,
2013-01-16 01:18:00,35.6,34.0,30.09,NNE,26,4.0,8.0,94,0.11,,---,0.11,VWS V14.00,2013-01-16 06:18:00,
2013-01-16 01:23:00,35.6,34.0,30.09,NNE,17,5.0,8.0,94,0.12,,---,0.12,VWS V14.00,2013-01-16 06:23:00,
2013-01-16 01:28:00,35.6,34.0,30.08,NNE,21,2.0,4.0,94,0.10,,---,0.13,VWS V14.00,2013-01-16 06:28:00,
2013-01-16 01:33:00,35.5,34.0,30.08,NNE,28,2.0,6.0,94,0.10,,---,0.13,VWS V14.00,2013-01-16 06:33:00,
2013-01-16 01:38:00,35.5,34.0,30.08,NE,38,4.0,7.0,94,0.11,,---,0.14,VWS V14.00,2013-01-16 06:38:00,
2013-01-16 01:43:00,35.4,33.8,30.08,NNE,17,6.0,7.0,94,0.12,,---,0.15,VWS V14.00,2013-01-16 06:43:00,
2013-01-16 01:48:00,35.4,33.8,30.09,NNE,27,0.0,7.0,94,0.12,,---,0.15,VWS V14.00,2013-01-16 06:48:00,
2013-01-16 01:53:00,35.4,33.8,30.09,NNE,28,2.0,7.0,94,0.13,,---,0.16,VWS V14.00,2013-01-16 06:53:00,
2013-01-16 01:58:00,35.4,33.8,30.08,NE,34,0.0,3.0,94,0.09,,---,0.16,VWS V14.00,2013-01-16 06:58:00,
2013-01-16 02:03:00,35.4,33.8,30.09,NNE,30,4.0,5.0,94,0.09,,---,0.16,VWS V14.00,2013-01-16 07:03:00,
2013-01-16 02:08:00,35.4,33.8,30.09,NNE,30,3.0,5.0,94,0.10,,---,0.17,VWS V14.00,2013-01-16 07:08:00,
2013-01-16 02:13:00,35.4,33.8,30.08,NNE,30,0.0,5.0,94,0.10,,---,0.17,VWS V14.00,2013-01-16 07:13:00,
2013-01-16 02:18:00,35.3,33.8,30.08,NE,35,3.0,5.0,94,0.11,,---,0.18,VWS V14.00,2013-01-16 07:18:00,
2013-01-16 02:23:00,35.3,33.8,30.07,NE,37,4.0,5.0,94,0.11,,---,0.18,VWS V14.00,2013-01-16 07:23:00,
2013-01-16 02:28:00,35.2,33.7,30.06,NNE,19,3.0,5.0,94,0.06,,---,0.18,VWS V14.00,2013-01-16 07:28:00,
2013-01-16 02:33:00,35.2,33.7,30.06,NNE,17,2.0,5.0,94,0.06,,---,0.18,VWS V14.00,2013-01-16 07:33:00,
2013-01-16 02:38:00,35.2,33.7,30.07,North,355,4.0,6.0,94,0.06,,---,0.18,VWS V14.00,2013-01-16 07:38:00,
2013-01-16 02:43:00,35.3,33.8,30.06,North,355,2.0,6.0,94,0.06,,---,0.18,VWS V14.00,2013-01-16 07:43:00,
2013-01-16 02:48:00,35.3,33.8,30.05,North,355,0.0,6.0,94,0.06,,---,0.18,VWS V14.00,2013-01-16 07:48:00,
2013-01-16 02:53:00,35.3,33.8,30.06,North,355,0.0,6.0,94,0.06,,---,0.18,VWS V14.00,2013-01-16 07:53:00,
2013-01-16 02:58:00,35.4,33.8,30.06,North,355,4.0,4.0,94,0.02,,---,0.18,VWS V14.00,2013-01-16 07:58:00,
2013-01-16 03:03:00,35.3,33.8,30.04,North,355,0.0,4.0,94,0.02,,---,0.18,VWS V14.00,2013-01-16 08:03:00,
2013-01-16 03:08:00,35.3,33.8,30.03,NE,47,1.0,4.0,94,0.02,,---,0.18,VWS V14.00,2013-01-16 08:08:00,
2013-01-16 03:13:00,35.3,33.8,30.04,North,360,4.0,5.0,94,0.02,,---,0.18,VWS V14.00,2013-01-16 08:13:00,
2013-01-16 03:18:00,35.3,33.8,30.04,NNW,331,5.0,7.0,94,0.02,,---,0.18,VWS V14.00,2013-01-16 08:18:00,
2013-01-16 03:23:00,35.3,33.8,30.04,NNW,348,5.0,7.0,94,0.02,,---,0.18,VWS V14.00,2013-01-16 08:23:00,
2013-01-16 03:28:00,35.3,33.8,30.03,North,349,5.0,6.0,94,0.00,,---,0.18,VWS V14.00,2013-01-16 08:28:00,
2013-01-16 03:33:00,35.3,33.8,30.04,North,350,6.0,7.0,94,0.00,,---,0.18,VWS V14.00,2013-01-16 08:33:00,
2013-01-16 03:38:00,35.3,33.8,30.03,North,5,2.0,7.0,94,0.00,,---,0.18,VWS V14.00,2013-01-16 08:38:00,
2013-01-16 03:43:00,35.2,33.7,30.03,NNE,30,3.0,7.0,94,0.00,,---,0.18,VWS V14.00,2013-01-16 08:43:00,
2013-01-16 03:48:00,35.2,33.7,30.03,NNE,30,3.0,7.0,94,0.00,,---,0.18,VWS V14.00,2013-01-16 08:48:00,
2013-01-16 03:53:00,35.2,33.7,30.03,NNE,27,2.0,7.0,94,0.00,,---,0.18,VWS V14.00,2013-01-16 08:53:00,
2013-01-16 03:58:00,35.2,33.7,30.03,NNE,23,2.0,3.0,94,0.00,,---,0.18,VWS V14.00,2013-01-16 08:58:00,
2013-01-16 04:03:00,35.1,33.5,30.02,NNE,23,0.0,3.0,94,0.00,,---,0.18,VWS V14.00,2013-01-16 09:03:00,
2013-01-16 04:08:00,35.1,33.5,30.01,NNE,24,0.0,3.0,94,0.00,,---,0.18,VWS V14.00,2013-01-16 09:08:00,
2013-01-16 04:13:00,35.1,33.5,30.01,NNE,24,0.0,3.0,94,0.00,,---,0.18,VWS V14.00,2013-01-16 09:13:00,
2013-01-16 04:18:00,35.0,33.5,30.01,NNE,24,0.0,3.0,94,0.00,,---,0.18,VWS V14.00,2013-01-16 09:18:00,
2013-01-16 04:23:00,35.0,33.5,30.00,NNE,24,0.0,3.0,94,0.00,,---,0.18,VWS V14.00,2013-01-16 09:23:00,
2013-01-16 04:28:00,35.0,33.5,30.00,NNE,24,0.0,0.0,94,0.00,,---,0.18,VWS V14.00,2013-01-16 09:28:00,
2013-01-16 04:33:00,34.9,33.3,30.00,NNE,24,0.0,3.0,94,0.00,,---,0.18,VWS V14.00,2013-01-16 09:33:00,
2013-01-16 04:38:00,34.9,33.3,30.00,NNE,24,0.0,3.0,94,0.00,,---,0.18,VWS V14.00,2013-01-16 09:38:00,
2013-01-16 04:43:00,34.9,33.3,30.00,NNE,24,0.0,3.0,94,0.00,,---,0.18,VWS V14.00,2013-01-16 09:43:00,
2013-01-16 04:48:00,34.9,33.3,30.00,NNE,24,1.0,3.0,94,0.00,,---,0.18,VWS V14.00,2013-01-16 09:48:00,
2013-01-16 04:53:00,35.0,33.5,30.00,NNE,24,0.0,3.0,94,0.00,,---,0.18,VWS V14.00,2013-01-16 09:53:00,
2013-01-16 04:58:00,35.0,33.5,29.99,NNE,24,0.0,0.0,94,0.00,,---,0.18,VWS V14.00,2013-01-16 09:58:00,
2013-01-16 05:03:00,35.0,33.5,30.00,NNE,24,0.0,3.0,94,0.00,,---,0.18,VWS V14.00,2013-01-16 10:03:00,
2013-01-16 05:08:00,35.0,33.5,30.00,NNE,24,0.0,3.0,94,0.00,,---,0.18,VWS V14.00,2013-01-16 10:08:00,
2013-01-16 05:13:00,35.0,33.5,30.00,NNE,24,0.0,3.0,94,0.00,,---,0.18,VWS V14.00,2013-01-16 10:13:00,
2013-01-16 05:18:00,35.0,33.5,30.00,NNE,24,0.0,3.0,94,0.00,,---,0.18,VWS V14.00,2013-01-16 10:18:00,
2013-01-16 05:23:00,35.1,33.5,30.01,NNE,24,0.0,3.0,94,0.00,,---,0.18,VWS V14.00,2013-01-16 10:23:00,
2013-01-16 05:28:00,35.1,33.5,30.00,NNE,24,0.0,0.0,94,0.00,,---,0.18,VWS V14.00,2013-01-16 10:28:00,
2013-01-16 05:33:00,35.1,33.5,30.00,NNE,24,1.0,2.0,94,0.01,,---,0.19,VWS V14.00,2013-01-16 10:33:00,
2013-01-16 05:38:00,35.1,33.3,30.00,NNE,24,0.0,3.0,93,0.01,,---,0.19,VWS V14.00,2013-01-16 10:38:00,
2013-01-16 05:43:00,35.0,33.2,30.00,NNE,24,0.0,3.0,93,0.01,,---,0.19,VWS V14.00,2013-01-16 10:43:00,
2013-01-16 05:48:00,35.0,33.2,30.01,NNE,24,0.0,3.0,93,0.01,,---,0.19,VWS V14.00,2013-01-16 10:48:00,
2013-01-16 05:53:00,35.0,33.2,30.01,NNE,24,0.0,3.0,93,0.02,,---,0.20,VWS V14.00,2013-01-16 10:53:00,
2013-01-16 05:58:00,35.0,33.2,30.00,NNE,24,1.0,2.0,93,0.02,,---,0.20,VWS V14.00,2013-01-16 10:58:00,
2013-01-16 06:03:00,35.0,33.2,30.00,NNE,24,2.0,3.0,93,0.02,,---,0.20,VWS V14.00,2013-01-16 11:03:00,
2013-01-16 06:08:00,35.0,33.5,30.00,NNE,24,0.0,3.0,94,0.02,,---,0.20,VWS V14.00,2013-01-16 11:08:00,
2013-01-16 06:13:00,35.0,33.2,30.00,NNE,24,0.0,3.0,93,0.02,,---,0.20,VWS V14.00,2013-01-16 11:13:00,
2013-01-16 06:18:00,35.0,33.5,29.99,NNE,24,0.0,3.0,94,0.03,,---,0.21,VWS V14.00,2013-01-16 11:18:00,
2013-01-16 06:23:00,35.0,33.2,30.00,NNE,24,0.0,3.0,93,0.03,,---,0.21,VWS V14.00,2013-01-16 11:23:00,
2013-01-16 06:28:00,35.0,33.2,30.00,NNE,24,1.0,2.0,93,0.03,,---,0.21,VWS V14.00,2013-01-16 11:28:00,
2013-01-16 06:33:00,35.0,33.5,30.00,NNE,24,0.0,2.0,94,0.03,,---,0.21,VWS V14.00,2013-01-16 11:33:00,
2013-01-16 06:38:00,35.0,33.2,30.00,NNE,24,2.0,3.0,93,0.03,,---,0.21,VWS V14.00,2013-01-16 11:38:00,
2013-01-16 06:43:00,35.1,33.5,30.00,NNE,24,0.0,3.0,94,0.03,,---,0.21,VWS V14.00,2013-01-16 11:43:00,
2013-01-16 06:48:00,35.1,33.5,29.99,NNE,24,0.0,3.0,94,0.03,,---,0.21,VWS V14.00,2013-01-16 11:48:00,
2013-01-16 06:53:00,35.0,33.5,29.99,NNE,24,0.0,3.0,94,0.03,,---,0.21,VWS V14.00,2013-01-16 11:53:00,
2013-01-16 06:58:00,35.0,33.5,29.98,NNE,24,0.0,2.0,94,0.01,,---,0.21,VWS V14.00,2013-01-16 11:58:00,
2013-01-16 07:03:00,35.0,33.5,29.98,NNE,24,0.0,2.0,94,0.01,,---,0.21,VWS V14.00,2013-01-16 12:03:00,
2013-01-16 07:08:00,35.0,33.5,29.99,NNE,24,0.0,2.0,94,0.01,,---,0.21,VWS V14.00,2013-01-16 12:08:00,
2013-01-16 07:13:00,35.0,33.5,29.99,NNE,24,2.0,3.0,94,0.01,,---,0.21,VWS V14.00,2013-01-16 12:13:00,
2013-01-16 07:18:00,35.0,33.5,29.99,NNE,24,0.0,3.0,94,0.01,,---,0.21,VWS V14.00,2013-01-16 12:18:00,
2013-01-16 07:23:00,34.9,33.3,29.99,NNE,24,0.0,3.0,94,0.01,,---,0.21,VWS V14.00,2013-01-16 12:23:00,
2013-01-16 07:28:00,35.0,33.5,29.99,NNE,24,0.0,0.0,94,0.00,,---,0.21,VWS V14.00,2013-01-16 12:28:00,
2013-01-16 07:33:00,35.0,33.5,29.99,NNE,24,0.0,0.0,94,0.00,,---,0.21,VWS V14.00,2013-01-16 12:33:00,
2013-01-16 07:38:00,35.0,33.5,29.99,NNE,24,0.0,0.0,94,0.00,,---,0.21,VWS V14.00,2013-01-16 12:38:00,
2013-01-16 07:43:00,35.1,33.5,30.00,NNE,24,1.0,2.0,94,0.00,,---,0.21,VWS V14.00,2013-01-16 12:43:00,
2013-01-16 07:48:00,35.1,33.5,29.99,NNE,24,0.0,2.0,94,0.00,,---,0.21,VWS V14.00,2013-01-16 12:48:00,
2013-01-16 07:53:00,35.2,33.7,30.00,NNE,24,0.0,2.0,94,0.01,,---,0.22,VWS V14.00,2013-01-16 12:53:00,
2013-01-16 07:58:00,35.2,33.7,30.00,NNE,24,0.0,0.0,94,0.01,,---,0.22,VWS V14.00,2013-01-16 12:58:00,
2013-01-16 08:03:00,35.3,33.8,30.00,NNE,24,0.0,0.0,94,0.01,,---,0.22,VWS V14.00,2013-01-16 13:03:00,
2013-01-16 08:08:00,35.3,33.8,30.00,NNE,24,0.0,0.0,94,0.01,,---,0.22,VWS V14.00,2013-01-16 13:08:00,
2013-01-16 08:13:00,35.3,33.8,30.00,NNE,24,0.0,0.0,94,0.01,,---,0.22,VWS V14.00,2013-01-16 13:13:00,
2013-01-16 08:18:00,35.3,33.8,30.00,NNE,24,0.0,0.0,94,0.01,,---,0.22,VWS V14.00,2013-01-16 13:18:00,
2013-01-16 08:23:00,35.3,33.8,30.00,NNE,24,0.0,0.0,94,0.01,,---,0.22,VWS V14.00,2013-01-16 13:23:00,
2013-01-16 08:28:00,35.3,33.8,30.00,NNE,24,0.0,0.0,94,0.01,,---,0.22,VWS V14.00,2013-01-16 13:28:00,
2013-01-16 08:33:00,35.4,33.8,30.00,NNE,24,0.0,0.0,94,0.01,,---,0.22,VWS V14.00,2013-01-16 13:33:00,
2013-01-16 08:38:00,35.5,34.0,30.01,NNE,24,0.0,0.0,94,0.02,,---,0.23,VWS V14.00,2013-01-16 13:38:00,
2013-01-16 08:43:00,35.4,33.8,30.02,NNE,24,0.0,0.0,94,0.02,,---,0.23,VWS V14.00,2013-01-16 13:43:00,
2013-01-16 08:48:00,35.5,34.0,30.02,NNE,24,0.0,0.0,94,0.02,,---,0.23,VWS V14.00,2013-01-16 13:48:00,
2013-01-16 08:53:00,35.6,34.0,30.02,NNE,24,0.0,0.0,94,0.02,,---,0.23,VWS V14.00,2013-01-16 13:53:00,
2013-01-16 08:58:00,35.8,34.2,30.02,NNE,24,0.0,0.0,94,0.01,,---,0.23,VWS V14.00,2013-01-16 13:58:00,
2013-01-16 09:03:00,35.9,34.1,30.02,NNE,24,0.0,1.0,93,0.01,,---,0.23,VWS V14.00,2013-01-16 14:03:00,
2013-01-16 09:08:00,36.0,34.4,30.02,NNE,24,0.0,2.0,94,0.01,,---,0.23,VWS V14.00,2013-01-16 14:08:00,
2013-01-16 09:13:00,36.2,34.6,30.02,NNE,24,1.0,3.0,94,0.01,,---,0.23,VWS V14.00,2013-01-16 14:13:00,
2013-01-16 09:18:00,36.2,34.4,30.02,South,188,0.0,4.0,93,0.01,,---,0.23,VWS V14.00,2013-01-16 14:18:00,
2013-01-16 09:23:00,36.2,34.4,30.02,South,189,2.0,4.0,93,0.01,,---,0.23,VWS V14.00,2013-01-16 14:23:00,
2013-01-16 09:28:00,36.3,34.5,30.02,South,188,0.0,3.0,93,0.01,,---,0.23,VWS V14.00,2013-01-16 14:28:00,
2013-01-16 09:33:00,36.5,34.7,30.01,South,186,2.0,7.0,93,0.01,,---,0.23,VWS V14.00,2013-01-16 14:33:00,
2013-01-16 09:38:00,36.6,35.0,30.01,SSW,213,4.0,7.0,94,0.01,,---,0.23,VWS V14.00,2013-01-16 14:38:00,
2013-01-16 09:43:00,36.7,35.1,30.01,SSW,209,4.0,7.0,94,0.01,,---,0.23,VWS V14.00,2013-01-16 14:43:00,
2013-01-16 09:48:00,36.8,35.0,30.01,SSW,197,5.0,7.0,93,0.01,,---,0.23,VWS V14.00,2013-01-16 14:48:00,
2013-01-16 09:53:00,36.9,35.1,30.01,SSW,198,3.0,8.0,93,0.01,,---,0.23,VWS V14.00,2013-01-16 14:53:00,
2013-01-16 09:58:00,37.0,35.2,30.01,SSW,198,1.0,7.0,93,0.00,,---,0.23,VWS V14.00,2013-01-16 14:58:00,
2013-01-16 10:03:00,37.2,35.4,30.00,SSW,196,2.0,8.0,93,0.00,,---,0.23,VWS V14.00,2013-01-16 15:03:00,
2013-01-16 10:08:00,37.4,35.8,30.00,South,190,6.0,9.0,94,0.01,,---,0.24,VWS V14.00,2013-01-16 15:08:00,
2013-01-16 10:13:00,37.9,36.3,30.00,SSE,163,8.0,9.0,94,0.01,,---,0.24,VWS V14.00,2013-01-16 15:13:00,
2013-01-16 10:18:00,38.0,36.4,30.00,SSE,167,7.0,10.0,94,0.01,,---,0.24,VWS V14.00,2013-01-16 15:18:00,
2013-01-16 10:23:00,38.2,36.6,29.99,SSW,199,5.0,10.0,94,0.01,,---,0.24,VWS V14.00,2013-01-16 15:23:00,
2013-01-16 10:28:00,38.3,36.5,29.99,South,179,9.0,12.0,93,0.01,,---,0.24,VWS V14.00,2013-01-16 15:28:00,
2013-01-16 10:33:00,38.6,37.0,29.98,SSE,162,8.0,12.0,94,0.01,,---,0.24,VWS V14.00,2013-01-16 15:33:00,
2013-01-16 10:38:00,38.8,37.0,29.98,South,188,3.0,12.0,93,0.01,,---,0.24,VWS V14.00,2013-01-16 15:38:00,
2013-01-16 10:43:00,39.1,37.2,29.97,SW,229,5.0,12.0,93,0.01,,---,0.24,VWS V14.00,2013-01-16 15:43:00,
2013-01-16 10:48:00,39.4,37.5,29.97,SW,215,3.0,12.0,93,0.01,,---,0.24,VWS V14.00,2013-01-16 15:48:00,
2013-01-16 10:53:00,39.6,37.5,29.95,South,189,6.0,12.0,92,0.01,,---,0.24,VWS V14.00,2013-01-16 15:53:00,
2013-01-16 10:58:00,39.8,37.7,29.95,SSW,192,4.0,4.0,92,0.01,,---,0.24,VWS V14.00,2013-01-16 15:58:00,
2013-01-16 11:03:00,40.1,38.0,29.94,SW,214,0.0,9.0,92,0.01,,---,0.24,VWS V14.00,2013-01-16 16:03:00,
2013-01-16 11:08:00,40.1,37.7,29.94,SSW,202,11.0,12.0,91,0.01,,---,0.24,VWS V14.00,2013-01-16 16:08:00,
2013-01-16 11:13:00,40.2,37.8,29.93,SSW,211,6.0,13.0,91,0.01,,---,0.24,VWS V14.00,2013-01-16 16:13:00,
2013-01-16 11:18:00,40.4,38.0,29.92,SSW,211,7.0,13.0,91,0.01,,---,0.24,VWS V14.00,2013-01-16 16:18:00,
2013-01-16 11:23:00,40.5,37.8,29.91,South,184,5.0,13.0,90,0.01,,---,0.24,VWS V14.00,2013-01-16 16:23:00,
2013-01-16 11:28:00,40.7,38.0,29.91,SW,218,2.0,6.0,90,0.00,,---,0.24,VWS V14.00,2013-01-16 16:28:00,
2013-01-16 11:33:00,40.8,38.1,29.90,South,182,8.0,9.0,90,0.00,,---,0.24,VWS V14.00,2013-01-16 16:33:00,
2013-01-16 11:38:00,40.9,38.2,29.89,South,184,6.0,10.0,90,0.00,,---,0.24,VWS V14.00,2013-01-16 16:38:00,
2013-01-16 11:43:00,41.0,38.3,29.88,South,171,5.0,10.0,90,0.00,,---,0.24,VWS V14.00,2013-01-16 16:43:00,
2013-01-16 11:48:00,41.1,38.4,29.87,South,176,7.0,11.0,90,0.00,,---,0.24,VWS V14.00,2013-01-16 16:48:00,
2013-01-16 11:53:00,41.3,38.6,29.87,South,170,8.0,12.0,90,0.00,,---,0.24,VWS V14.00,2013-01-16 16:53:00,
2013-01-16 11:58:00,41.4,38.7,29.86,SSW,194,6.0,9.0,90,0.00,,---,0.24,VWS V14.00,2013-01-16 16:58:00,
2013-01-16 12:03:00,41.5,38.8,29.85,SSW,203,13.0,13.0,90,0.00,,---,0.24,VWS V14.00,2013-01-16 17:03:00,
2013-01-16 12:08:00,41.5,38.8,29.84,SSW,208,15.0,15.0,90,0.00,,---,0.24,VWS V14.00,2013-01-16 17:08:00,
2013-01-16 12:13:00,41.8,39.1,29.84,South,187,13.0,16.0,90,0.00,,---,0.24,VWS V14.00,2013-01-16 17:13:00,
2013-01-16 12:18:00,42.0,39.3,29.84,SSW,200,2.0,16.0,90,0.00,,---,0.24,VWS V14.00,2013-01-16 17:18:00,
2013-01-16 12:23:00,42.4,39.7,29.84,SSW,207,5.0,16.0,90,0.00,,---,0.24,VWS V14.00,2013-01-16 17:23:00,
2013-01-16 12:28:00,42.6,39.6,29.84,SW,222,5.0,5.0,89,0.00,,---,0.24,VWS V14.00,2013-01-16 17:28:00,
2013-01-16 12:33:00,42.9,40.2,29.83,South,178,6.0,11.0,90,0.00,,---,0.24,VWS V14.00,2013-01-16 17:33:00,
2013-01-16 12:38:00,43.2,40.5,29.83,South,187,15.0,18.0,90,0.00,,---,0.24,VWS V14.00,2013-01-16 17:38:00,
2013-01-16 12:43:00,43.5,40.8,29.82,SSW,201,1.0,18.0,90,0.00,,---,0.24,VWS V14.00,2013-01-16 17:43:00,
2013-01-16 12:48:00,43.8,40.8,29.81,South,178,13.0,18.0,89,0.00,,---,0.24,VWS V14.00,2013-01-16 17:48:00,
2013-01-16 12:53:00,43.8,40.8,29.82,South,190,19.0,19.0,89,0.00,,---,0.24,VWS V14.00,2013-01-16 17:53:00,
2013-01-16 12:58:00,43.9,40.9,29.81,SSE,168,10.0,15.0,89,0.00,,---,0.24,VWS V14.00,2013-01-16 17:58:00,
2013-01-16 13:03:00,43.9,40.9,29.80,South,169,8.0,19.0,89,0.00,,---,0.24,VWS V14.00,2013-01-16 18:03:00,
2013-01-16 13:08:00,44.0,41.0,29.80,South,178,13.0,19.0,89,0.00,,---,0.24,VWS V14.00,2013-01-16 18:08:00,
2013-01-16 13:13:00,44.1,41.1,29.80,South,173,9.0,19.0,89,0.00,,---,0.24,VWS V14.00,2013-01-16 18:13:00,
2013-01-16 13:18:00,44.1,41.1,29.80,South,178,9.0,19.0,89,0.00,,---,0.24,VWS V14.00,2013-01-16 18:18:00,
2013-01-16 13:23:00,44.1,41.1,29.80,SSW,202,7.0,19.0,89,0.00,,---,0.24,VWS V14.00,2013-01-16 18:23:00,
2013-01-16 13:28:00,44.1,41.1,29.81,SSW,198,6.0,9.0,89,0.00,,---,0.24,VWS V14.00,2013-01-16 18:28:00,
2013-01-16 13:33:00,44.1,41.1,29.81,SW,214,6.0,13.0,89,0.00,,---,0.24,VWS V14.00,2013-01-16 18:33:00,
2013-01-16 13:38:00,44.2,41.2,29.82,SSW,195,6.0,13.0,89,0.00,,---,0.24,VWS V14.00,2013-01-16 18:38:00,
2013-01-16 13:43:00,44.3,41.6,29.81,SSE,162,6.0,13.0,90,0.00,,---,0.24,VWS V14.00,2013-01-16 18:43:00,
2013-01-16 13:48:00,44.5,41.8,29.79,South,183,6.0,13.0,90,0.00,,---,0.24,VWS V14.00,2013-01-16 18:48:00,
2013-01-16 13:53:00,44.9,42.2,29.79,South,182,11.0,13.0,90,0.00,,---,0.24,VWS V14.00,2013-01-16 18:53:00,
2013-01-16 13:58:00,45.4,42.6,29.78,South,179,6.0,10.0,90,0.00,,---,0.24,VWS V14.00,2013-01-16 18:58:00,
2013-01-16 14:03:00,45.7,42.7,29.78,South,175,13.0,20.0,89,0.00,,---,0.24,VWS V14.00,2013-01-16 19:03:00,
2013-01-16 14:08:00,46.0,43.0,29.79,South,174,10.0,20.0,89,0.00,,---,0.24,VWS V14.00,2013-01-16 19:08:00,
2013-01-16 14:13:00,46.0,42.7,29.82,SW,217,3.0,20.0,88,0.00,,---,0.24,VWS V14.00,2013-01-16 19:13:00,
2013-01-16 14:18:00,46.0,42.7,29.82,SSW,212,0.0,20.0,88,0.00,,---,0.24,VWS V14.00,2013-01-16 19:18:00,
2013-01-16 14:23:00,46.0,42.7,29.83,SSE,159,4.0,20.0,88,0.00,,---,0.24,VWS V14.00,2013-01-16 19:23:00,
2013-01-16 14:28:00,46.1,42.8,29.83,South,189,1.0,2.0,88,0.00,,---,0.24,VWS V14.00,2013-01-16 19:28:00,
2013-01-16 14:33:00,46.1,43.0,29.83,SSE,158,2.0,7.0,89,0.00,,---,0.24,VWS V14.00,2013-01-16 19:33:00,
2013-01-16 14:38:00,46.3,43.2,29.83,South,188,1.0,7.0,89,0.00,,---,0.24,VWS V14.00,2013-01-16 19:38:00,
2013-01-16 14:43:00,46.3,43.2,29.83,South,188,0.0,7.0,89,0.00,,---,0.24,VWS V14.00,2013-01-16 19:43:00,
2013-01-16 14:48:00,46.1,43.0,29.83,South,188,0.0,7.0,89,0.00,,---,0.24,VWS V14.00,2013-01-16 19:48:00,
2013-01-16 14:53:00,45.8,42.8,29.83,SSW,193,3.0,7.0,89,0.00,,---,0.24,VWS V14.00,2013-01-16 19:53:00,
2013-01-16 14:58:00,45.6,42.8,29.84,SW,215,0.0,0.0,90,0.00,,---,0.24,VWS V14.00,2013-01-16 19:58:00,
2013-01-16 15:03:00,45.5,42.7,29.84,NW,326,5.0,6.0,90,0.00,,---,0.24,VWS V14.00,2013-01-16 20:03:00,
2013-01-16 15:08:00,45.6,42.8,29.86,NNW,336,5.0,9.0,90,0.00,,---,0.24,VWS V14.00,2013-01-16 20:08:00,
2013-01-16 15:13:00,45.5,42.7,29.85,NNW,336,0.0,9.0,90,0.00,,---,0.24,VWS V14.00,2013-01-16 20:13:00,
2013-01-16 15:18:00,45.7,43.2,29.87,NNW,336,2.0,9.0,91,0.00,,---,0.24,VWS V14.00,2013-01-16 20:18:00,
2013-01-16 15:23:00,45.9,43.4,29.87,NE,38,3.0,9.0,91,0.00,,---,0.24,VWS V14.00,2013-01-16 20:23:00,
2013-01-16 15:28:00,46.0,43.5,29.87,NNE,24,8.0,10.0,91,0.00,,---,0.24,VWS V14.00,2013-01-16 20:28:00,
2013-01-16 15:33:00,46.0,43.2,29.88,North,360,8.0,10.0,90,0.00,,---,0.24,VWS V14.00,2013-01-16 20:33:00,
2013-01-16 15:38:00,45.6,42.8,29.88,NNE,19,11.0,12.0,90,0.00,,---,0.24,VWS V14.00,2013-01-16 20:38:00,
2013-01-16 15:43:00,44.9,41.9,29.88,NNE,31,4.0,12.0,89,0.00,,---,0.24,VWS V14.00,2013-01-16 20:43:00,
2013-01-16 15:48:00,44.3,41.3,29.88,North,355,5.0,12.0,89,0.00,,---,0.24,VWS V14.00,2013-01-16 20:48:00,
2013-01-16 15:53:00,43.9,40.9,29.88,North,350,5.0,12.0,89,0.00,,---,0.24,VWS V14.00,2013-01-16 20:53:00,
2013-01-16 15:58:00,43.4,40.4,29.87,North,349,5.0,8.0,89,0.00,,---,0.24,VWS V14.00,2013-01-16 20:58:00,
2013-01-16 16:03:00,43.2,40.5,29.89,NNW,348,7.0,10.0,90,0.00,,---,0.24,VWS V14.00,2013-01-16 21:03:00,
2013-01-16 16:08:00,42.9,40.2,29.88,North,350,6.0,14.0,90,0.00,,---,0.24,VWS V14.00,2013-01-16 21:08:00,
2013-01-16 16:13:00,42.7,40.0,29.88,North,5,4.0,14.0,90,0.00,,---,0.24,VWS V14.00,2013-01-16 21:13:00,
2013-01-16 16:18:00,42.6,39.9,29.89,NNE,26,7.0,14.0,90,0.00,,---,0.24,VWS V14.00,2013-01-16 21:18:00,
2013-01-16 16:23:00,42.4,39.7,29.88,North,360,8.0,14.0,90,0.00,,---,0.24,VWS V14.00,2013-01-16 21:23:00,
2013-01-16 16:28:00,42.3,39.6,29.90,NNW,344,8.0,10.0,90,0.00,,---,0.24,VWS V14.00,2013-01-16 21:28:00,
2013-01-16 16:33:00,42.2,39.5,29.90,North,355,6.0,10.0,90,0.00,,---,0.24,VWS V14.00,2013-01-16 21:33:00,
2013-01-16 16:38:00,42.2,39.8,29.91,NNE,15,4.0,10.0,91,0.00,,---,0.24,VWS V14.00,2013-01-16 21:38:00,
2013-01-16 16:43:00,42.1,39.7,29.92,NNE,16,7.0,10.0,91,0.00,,---,0.24,VWS V14.00,2013-01-16 21:43:00,
2013-01-16 16:48:00,42.0,39.6,29.91,North,360,4.0,11.0,91,0.00,,---,0.24,VWS V14.00,2013-01-16 21:48:00,
2013-01-16 16:53:00,41.9,39.5,29.92,North,10,4.0,11.0,91,0.00,,---,0.24,VWS V14.00,2013-01-16 21:53:00,
2013-01-16 16:58:00,41.9,39.5,29.92,North,355,6.0,6.0,91,0.00,,---,0.24,VWS V14.00,2013-01-16 21:58:00,
2013-01-16 17:03:00,41.8,39.4,29.92,North,355,4.0,9.0,91,0.00,,---,0.24,VWS V14.00,2013-01-16 22:03:00,
2013-01-16 17:08:00,41.8,39.4,29.92,North,360,4.0,9.0,91,0.00,,---,0.24,VWS V14.00,2013-01-16 22:08:00,
2013-01-16 17:13:00,41.8,39.4,29.92,North,360,4.0,9.0,91,0.00,,---,0.24,VWS V14.00,2013-01-16 22:13:00,
2013-01-16 17:18:00,41.8,39.4,29.93,North,360,2.0,9.0,91,0.00,,---,0.24,VWS V14.00,2013-01-16 22:18:00,
2013-01-16 17:23:00,41.8,39.4,29.93,NNE,26,2.0,9.0,91,0.00,,---,0.24,VWS V14.00,2013-01-16 22:23:00,
2013-01-16 17:28:00,41.8,39.4,29.93,NNE,28,5.0,5.0,91,0.00,,---,0.24,VWS V14.00,2013-01-16 22:28:00,
2013-01-16 17:33:00,41.9,39.5,29.94,NNE,22,2.0,7.0,91,0.00,,---,0.24,VWS V14.00,2013-01-16 22:33:00,
2013-01-16 17:38:00,41.9,39.5,29.93,NE,38,2.0,7.0,91,0.00,,---,0.24,VWS V14.00,2013-01-16 22:38:00,
2013-01-16 17:43:00,41.8,39.4,29.93,NNE,21,3.0,7.0,91,0.00,,---,0.24,VWS V14.00,2013-01-16 22:43:00,
2013-01-16 17:48:00,41.7,39.3,29.94,NNE,17,4.0,7.0,91,0.00,,---,0.24,VWS V14.00,2013-01-16 22:48:00,
2013-01-16 17:53:00,41.7,39.3,29.94,NE,34,2.0,7.0,91,0.00,,---,0.24,VWS V14.00,2013-01-16 22:53:00,
2013-01-16 17:58:00,41.6,39.2,29.93,NE,34,1.0,4.0,91,0.00,,---,0.24,VWS V14.00,2013-01-16 22:58:00,
2013-01-16 18:03:00,41.6,39.2,29.92,NNE,33,2.0,5.0,91,0.00,,---,0.24,VWS V14.00,2013-01-16 23:03:00,
2013-01-16 18:08:00,41.5,39.1,29.92,NNE,32,0.0,5.0,91,0.00,,---,0.24,VWS V14.00,2013-01-16 23:08:00,
2013-01-16 18:13:00,41.4,39.0,29.92,NNE,32,0.0,5.0,91,0.00,,---,0.24,VWS V14.00,2013-01-16 23:13:00,
2013-01-16 18:18:00,41.4,39.0,29.92,NNE,32,1.0,5.0,91,0.00,,---,0.24,VWS V14.00,2013-01-16 23:18:00,
2013-01-16 18:23:00,41.4,39.2,29.93,NNE,31,3.0,5.0,92,0.00,,---,0.24,VWS V14.00,2013-01-16 23:23:00,
2013-01-16 18:28:00,41.4,39.2,29.93,NNE,30,1.0,3.0,92,0.00,,---,0.24,VWS V14.00,2013-01-16 23:28:00,
2013-01-16 18:33:00,41.4,39.2,29.95,NNE,30,0.0,4.0,92,0.00,,---,0.24,VWS V14.00,2013-01-16 23:33:00,
2013-01-16 18:38:00,41.4,39.2,29.94,NNE,30,0.0,4.0,92,0.00,,---,0.24,VWS V14.00,2013-01-16 23:38:00,
2013-01-16 18:43:00,41.4,39.2,29.93,ENE,76,4.0,5.0,92,0.00,,---,0.24,VWS V14.00,2013-01-16 23:43:00,
2013-01-16 18:48:00,41.4,39.2,29.93,ENE,76,0.0,5.0,92,0.00,,---,0.24,VWS V14.00,2013-01-16 23:48:00,
2013-01-16 18:53:00,41.4,39.2,29.94,ENE,76,0.0,5.0,92,0.00,,---,0.24,VWS V14.00,2013-01-16 23:53:00,
2013-01-16 18:58:00,41.3,39.2,29.94,ENE,76,0.0,0.0,92,0.00,,---,0.24,VWS V14.00,2013-01-16 23:58:00,
2013-01-16 19:03:00,41.3,39.2,29.95,ENE,72,2.0,3.0,92,0.00,,---,0.24,VWS V14.00,2013-01-17 00:03:00,
2013-01-16 19:08:00,41.4,39.2,29.95,ENE,72,0.0,3.0,92,0.00,,---,0.24,VWS V14.00,2013-01-17 00:08:00,
2013-01-16 19:13:00,41.4,39.2,29.96,ENE,72,0.0,3.0,92,0.00,,---,0.24,VWS V14.00,2013-01-17 00:13:00,
2013-01-16 19:18:00,41.4,39.2,29.96,ENE,72,0.0,3.0,92,0.00,,---,0.24,VWS V14.00,2013-01-17 00:18:00,
2013-01-16 19:23:00,41.4,39.2,29.96,ENE,72,0.0,3.0,92,0.00,,---,0.24,VWS V14.00,2013-01-17 00:23:00,
2013-01-16 19:28:00,41.4,39.2,29.96,ENE,72,0.0,0.0,92,0.00,,---,0.24,VWS V14.00,2013-01-17 00:28:00,
2013-01-16 19:33:00,41.4,39.2,29.95,ENE,72,0.0,0.0,92,0.00,,---,0.24,VWS V14.00,2013-01-17 00:33:00,
2013-01-16 19:38:00,41.3,39.2,29.95,ENE,72,0.0,2.0,92,0.00,,---,0.24,VWS V14.00,2013-01-17 00:38:00,
2013-01-16 19:43:00,41.2,39.1,29.95,ENE,72,2.0,3.0,92,0.00,,---,0.24,VWS V14.00,2013-01-17 00:43:00,
2013-01-16 19:47:00,41.2,39.1,29.96,NNW,343,5.0,7.0,92,0.00,,---,0.24,VWS V14.00,2013-01-17 00:47:00,
2013-01-16 19:53:00,41.3,39.2,29.95,NNW,345,5.0,7.0,92,0.00,,---,0.24,VWS V14.00,2013-01-17 00:53:00,
2013-01-16 19:58:00,41.2,39.1,29.96,North,349,2.0,4.0,92,0.00,,---,0.24,VWS V14.00,2013-01-17 00:58:00,
2013-01-16 20:03:00,41.2,39.1,29.96,North,355,2.0,5.0,92,0.00,,---,0.24,VWS V14.00,2013-01-17 01:03:00,
2013-01-16 20:08:00,41.2,39.1,29.96,North,355,0.0,5.0,92,0.00,,---,0.24,VWS V14.00,2013-01-17 01:08:00,
2013-01-16 20:13:00,41.2,39.1,29.96,North,355,0.0,5.0,92,0.00,,---,0.24,VWS V14.00,2013-01-17 01:13:00,
2013-01-16 20:18:00,41.3,39.2,29.96,North,355,2.0,5.0,92,0.00,,---,0.24,VWS V14.00,2013-01-17 01:18:00,
2013-01-16 20:23:00,41.3,39.2,29.96,North,355,0.0,5.0,92,0.00,,---,0.24,VWS V14.00,2013-01-17 01:23:00,
2013-01-16 20:28:00,41.3,39.2,29.96,North,355,0.0,0.0,92,0.00,,---,0.24,VWS V14.00,2013-01-17 01:28:00,
2013-01-16 20:33:00,41.3,39.2,29.96,North,355,1.0,1.0,92,0.00,,---,0.24,VWS V14.00,2013-01-17 01:33:00,
2013-01-16 20:38:00,41.3,39.2,29.96,North,355,0.0,2.0,92,0.00,,---,0.24,VWS V14.00,2013-01-17 01:38:00,
2013-01-16 20:43:00,41.3,39.2,29.95,North,355,0.0,2.0,92,0.00,,---,0.24,VWS V14.00,2013-01-17 01:43:00,
2013-01-16 20:48:00,41.3,39.2,29.95,North,355,1.0,2.0,92,0.00,,---,0.24,VWS V14.00,2013-01-17 01:48:00,
2013-01-16 20:53:00,41.3,39.4,29.95,North,355,0.0,2.0,93,0.00,,---,0.24,VWS V14.00,2013-01-17 01:53:00,
2013-01-16 20:58:00,41.3,39.4,29.95,North,355,0.0,0.0,93,0.00,,---,0.24,VWS V14.00,2013-01-17 01:58:00,
2013-01-16 21:03:00,41.4,39.5,29.95,North,355,2.0,2.0,93,0.00,,---,0.24,VWS V14.00,2013-01-17 02:03:00,
2013-01-16 21:08:00,41.4,39.5,29.95,North,355,0.0,4.0,93,0.00,,---,0.24,VWS V14.00,2013-01-17 02:08:00,
2013-01-16 21:13:00,41.5,39.6,29.95,North,355,0.0,4.0,93,0.00,,---,0.24,VWS V14.00,2013-01-17 02:13:00,
2013-01-16 21:18:00,41.5,39.6,29.95,WSW,237,4.0,5.0,93,0.00,,---,0.24,VWS V14.00,2013-01-17 02:18:00,
2013-01-16 21:23:00,41.6,39.7,29.95,SW,230,3.0,5.0,93,0.00,,---,0.24,VWS V14.00,2013-01-17 02:23:00,
2013-01-16 21:28:00,41.8,39.9,29.95,SW,228,1.0,4.0,93,0.00,,---,0.24,VWS V14.00,2013-01-17 02:28:00,
2013-01-16 21:33:00,41.8,39.7,29.94,SW,228,3.0,5.0,92,0.00,,---,0.24,VWS V14.00,2013-01-17 02:33:00,
2013-01-16 21:38:00,41.8,39.7,29.94,SW,228,4.0,5.0,92,0.00,,---,0.24,VWS V14.00,2013-01-17 02:38:00,
2013-01-16 21:43:00,41.8,39.7,29.95,SW,228,3.0,5.0,92,0.00,,---,0.24,VWS V14.00,2013-01-17 02:43:00,
2013-01-16 21:48:00,41.8,39.7,29.95,SW,228,1.0,5.0,92,0.00,,---,0.24,VWS V14.00,2013-01-17 02:48:00,
2013-01-16 21:53:00,41.9,39.8,29.94,SW,228,0.0,5.0,92,0.00,,---,0.24,VWS V14.00,2013-01-17 02:53:00,
2013-01-16 21:58:00,42.0,39.8,29.95,SW,228,0.0,0.0,92,0.00,,---,0.24,VWS V14.00,2013-01-17 02:58:00,
2013-01-16 22:03:00,42.2,40.0,29.95,SW,222,3.0,4.0,92,0.00,,---,0.24,VWS V14.00,2013-01-17 03:03:00,
2013-01-16 22:08:00,42.4,40.5,29.94,SSW,212,3.0,6.0,93,0.00,,---,0.24,VWS V14.00,2013-01-17 03:08:00,
2013-01-16 22:13:00,42.4,40.2,29.94,SSW,212,3.0,6.0,92,0.00,,---,0.24,VWS V14.00,2013-01-17 03:13:00,
2013-01-16 22:18:00,42.4,40.2,29.94,SSW,213,0.0,6.0,92,0.00,,---,0.24,VWS V14.00,2013-01-17 03:18:00,
2013-01-16 22:23:00,42.4,40.2,29.94,SSW,200,3.0,6.0,92,0.00,,---,0.24,VWS V14.00,2013-01-17 03:23:00,
2013-01-16 22:28:00,42.4,40.2,29.94,SSW,202,2.0,4.0,92,0.00,,---,0.24,VWS V14.00,2013-01-17 03:28:00,
2013-01-16 22:33:00,42.5,40.3,29.94,SSW,202,0.0,4.0,92,0.00,,---,0.24,VWS V14.00,2013-01-17 03:33:00,
2013-01-16 22:38:00,42.6,40.4,29.94,SSW,202,2.0,4.0,92,0.00,,---,0.24,VWS V14.00,2013-01-17 03:38:00,
2013-01-16 22:43:00,42.8,40.6,29.94,SSW,202,2.0,4.0,92,0.00,,---,0.24,VWS V14.00,2013-01-17 03:43:00,
2013-01-16 22:48:00,43.0,41.1,29.93,South,190,2.0,5.0,93,0.00,,---,0.24,VWS V14.00,2013-01-17 03:48:00,
2013-01-16 22:53:00,43.2,41.0,29.94,South,190,2.0,5.0,92,0.00,,---,0.24,VWS V14.00,2013-01-17 03:53:00,
2013-01-16 22:58:00,43.1,40.9,29.93,South,190,1.0,3.0,92,0.00,,---,0.24,VWS V14.00,2013-01-17 03:58:00,
2013-01-16 23:03:00,42.9,40.7,29.93,South,190,0.0,3.0,92,0.00,,---,0.24,VWS V14.00,2013-01-17 04:03:00,
2013-01-16 23:08:00,42.9,40.7,29.93,South,190,0.0,5.0,92,0.00,,---,0.24,VWS V14.00,2013-01-17 04:08:00,
2013-01-16 23:13:00,42.8,40.6,29.93,SSW,198,1.0,6.0,92,0.00,,---,0.24,VWS V14.00,2013-01-17 04:13:00,
2013-01-16 23:18:00,42.7,40.5,29.93,SSW,198,1.0,6.0,92,0.00,,---,0.24,VWS V14.00,2013-01-17 04:18:00,
2013-01-16 23:23:00,42.9,40.7,29.93,SSW,198,0.0,6.0,92,0.00,,---,0.24,VWS V14.00,2013-01-17 04:23:00,
2013-01-16 23:28:00,42.9,41.0,29.93,SSW,198,0.0,0.0,93,0.00,,---,0.24,VWS V14.00,2013-01-17 04:28:00,
2013-01-16 23:33:00,43.0,41.1,29.93,SSW,198,0.0,0.0,93,0.00,,---,0.24,VWS V14.00,2013-01-17 04:33:00,
2013-01-16 23:38:00,42.9,40.7,29.94,SSW,198,0.0,0.0,92,0.00,,---,0.24,VWS V14.00,2013-01-17 04:38:00,
2013-01-16 23:43:00,42.8,40.6,29.93,SSW,198,0.0,0.0,92,0.00,,---,0.24,VWS V14.00,2013-01-17 04:43:00,
2013-01-16 23:48:00,42.7,40.5,29.94,SSW,198,0.0,2.0,92,0.00,,---,0.24,VWS V14.00,2013-01-17 04:48:00,
2013-01-16 23:53:00,43.2,41.3,29.94,SSW,198,1.0,2.0,93,0.00,,---,0.24,VWS V14.00,2013-01-17 04:53:00,
2013-01-16 23:58:00,43.5,41.6,29.95,SSW,198,0.0,0.0,93,0.00,,---,0.00,VWS V14.00,2013-01-17 04:58:00,